Location: Peterborough
(44.3091°N, 78.3197°W)
Time: 00:34:56
(UTC-04:00)

Vanguard 1 Rocket - Pass Details

Date: 27 March 2023
Orbit: 655 x 4220 km, 34.3° (Epoch: 02 June)

Event Time Altitude Azimuth Distance (km) Brightness Sun altitude
Rises 23:45:34 0° 238° (WSW) 8,454 12.3 -38.8°
Reaches altitude 10° 23:51:54 10° 234° (SW) 7,310 11.9 -39.3°
Enters shadow 00:07:14 41° 210° (SSW) 4,462 10.5 -40.5°
